Location: Squirrel Cove
(50.1074°N, 124.9139°W)
Time: 16:12:21
(UTC-08:00)

BlueWalker 3 - Visible Passes

Search period start: 30 November 2022 00:00
Search period end: 10 December 2022 00:00
Orbit: 500 x 519 km, 53.2° (Epoch: 30 November)

Date Brightness Start Highest point End Pass type
(mag) Time Alt. Az. Time Alt. Az. Time Alt. Az.
30 Nov 2.2 18:06:13 10° W 18:10:05 57° N 18:11:25 36° NE visible
30 Nov 4.7 19:45:13 10° WNW 19:46:14 17° WNW 19:46:14 17° WNW visible
01 Dec 2.2 17:47:52 10° W 17:51:44 56° N 17:53:45 25° ENE visible
01 Dec 4.1 19:26:51 10° WNW 19:28:34 24° WNW 19:28:34 24° WNW visible
02 Dec 2.3 17:29:30 10° W 17:33:22 55° N 17:36:06 18° ENE visible
02 Dec 3.4 19:08:28 10° WNW 19:10:55 35° NW 19:10:55 35° NW visible
03 Dec 2.3 17:11:08 10° W 17:15:00 55° N 17:18:28 12° ENE visible
03 Dec 2.5 18:50:05 10° WNW 18:53:17 53° NW 18:53:17 53° NW visible
04 Dec 2.3 16:52:45 10° W 16:56:37 54° N 17:00:27 10° ENE visible
04 Dec 1.9 18:31:42 10° WNW 18:35:36 67° NNE 18:35:42 67° NNE visible
04 Dec 5.4 20:10:30 10° WNW 20:10:31 10° WNW 20:10:31 10° WNW visible
05 Dec 1.9 18:13:18 10° WNW 18:17:13 69° NNE 18:18:09 48° E visible
05 Dec 4.9 19:52:07 10° WNW 19:52:59 16° W 19:52:59 16° W visible
06 Dec 1.9 17:54:54 10° WNW 17:58:49 71° NNE 18:00:41 29° E visible
06 Dec 4.3 19:33:44 10° WNW 19:35:32 23° W 19:35:32 23° W visible
07 Dec 1.9 17:36:29 10° WNW 17:40:25 73° NNE 17:43:19 17° E visible
07 Dec 3.6 19:15:20 10° WNW 19:18:11 32° WSW 19:18:11 32° WSW visible
08 Dec 1.9 17:18:04 10° WNW 17:22:00 75° NNE 17:25:54 10° ESE visible
08 Dec 3.3 18:56:56 10° WNW 19:00:29 33° SW 19:00:58 32° SSW visible
09 Dec 1.9 16:59:39 10° WNW 17:03:35 77° NNE 17:07:29 10° ESE visible
09 Dec 3.6 18:38:32 10° WNW 18:42:02 32° SW 18:43:57 20° S visible
